[[{"header":{"parameterUnit":"m.s-1","parameterCategory":1,"la1":30.2991,"la2":30.254,"lo1":-89.0895,"lo2":-89.0444,"dy":0.0017,"dx":0.0017,"nx":28,"ny":28,"refTime":"2025-04-19T21:00:00:Z","depth":0,"parameterNumber":2,"parameterNumberName":"U-component_of_WINDS"},"data":[0,0,0,0,0,0,0,0,0,0,0,0,0,0,0,0,0,0,0,0,0,0,0,0,0,0,0,0,0,0,0,0,0,0,0,0,0,0,0,0,0,0,0,0,0,0,0,0,0,0,0,0,0,0,0,0,0,0,-3.7467,-3.7468,0,-3.757,-3.7572,-3.7573,-3.7573,-3.7572,-3.7571,-3.7569,-3.7672,-3.7675,-3.7679,0,0,0,0,0,0,0,0,0,0,0,0,0,-3.7266,-3.727,-3.7467,-3.7468,-3.7469,-3.757,-3.7572,-3.7573,-3.7573,-3.7572,-3.757,-3.7569,-3.767,-3.7675,-3.768,0,0,0,0,0,0,0,0,0,0,0,0,0,-3.736,-3.7271,-3.7467,-3.7482,-3.7484,-3.757,-3.7572,-3.7573,-3.7574,-3.7572,-3.757,-3.7568,-3.7669,-3.7675,-3.768,-3.7757,0,0,-3.7699,-3.7701,0,0,0,0,0,0,0,0,-3.7354,-3.7367,-3.7478,-3.7481,-3.7484,-3.7557,-3.7538,-3.7635,-3.7574,-3.754,-3.7569,-3.7567,-3.7635,-3.7643,-3.7667,-3.7761,-3.7766,-3.7699,-3.7703,-3.7705,-3.7707,0,0,0,0,0,0,0,-3.7348,-3.7363,-3.7508,-3.748,-3.7483,-3.7482,-3.7494,-3.7557,-3.7597,-3.7543,-3.7543,-3.7555,-3.7636,-3.7661,-3.7669,-3.7767,-3.7699,-3.7704,-3.7708,-3.771,-3.7928,-3.793,0,0,0,0,0,0,-3.7339,-3.7357,-3.7504,-3.7511,-3.7413,-3.7488,-3.75,-3.7535,-3.7596,-3.7604,-3.7557,-3.7555,-3.7652,-3.7663,-3.7673,-3.7765,-3.7705,-3.7711,-3.7714,-3.7926,-3.7929,-3.7931,0,0,0,0,0,0,-3.7334,-3.7352,-3.75,-3.7434,-3.7453,-3.7493,-3.7533,-3.7538,-3.7564,-3.7607,-3.7614,-3.7576,-3.7651,-3.7665,-3.7736,-3.7769,-3.7713,-3.7719,-3.7923,-3.7927,-3.793,-3.795,0,0,0,0,0,0,-3.7329,-3.735,-3.7381,-3.7435,-3.7457,-3.7562,-3.7535,-3.7542,-3.7575,-3.7573,-3.7627,-3.7634,-3.7651,-3.7727,-3.7742,-3.7776,-3.7723,-3.792,-3.7925,-3.7929,-3.7947,-3.7954,-3.796,0,0,0,0,0,-3.7322,-3.7382,-3.7382,-3.74,-3.7495,-3.7564,-3.7576,-3.7596,-3.7577,-3.7607,-3.7635,-3.7632,-3.7763,-3.7734,-3.7751,-3.7787,-3.7918,-3.7923,-3.7928,-3.7944,-3.7953,-3.796,0,0,0,0,0,0,-3.7329,-3.7389,-3.739,-3.747,-3.7512,-3.7564,-3.7602,-3.7605,-3.7652,-3.7648,-3.7669,-3.7681,-3.7752,-3.7777,-3.7744,-3.7864,-3.7838,-3.7847,-3.7844,-3.7853,-3.7859,-3.7851,-3.7728,0,0,0,0,0,-3.734,-3.7392,-3.7442,-3.7507,-3.7528,-3.7562,-3.7593,-3.7604,-3.7648,-3.7666,-3.7699,-3.774,-3.7791,-3.7824,-3.7873,-3.7951,-3.7962,-3.7984,-3.7991,-3.7996,-3.8002,-3.8044,-3.8054,-3.7947,-3.7947,-3.7947,0,0,-3.7363,-3.7402,-3.7434,-3.751,-3.7544,-3.7596,-3.7577,-3.7633,-3.7671,-3.7674,-3.7743,-3.7769,-3.7816,-3.7891,-3.7926,-3.7914,-3.8035,-3.8002,-3.8006,-3.801,-3.805,-3.8061,-3.8069,-3.7951,-3.795,-3.795,0,0,-3.7431,-3.7467,-3.7525,-3.756,-3.7612,-3.7634,-3.7648,-3.77,-3.7717,-3.7788,-3.779,-3.7836,-3.7923,-3.7957,-3.7985,-3.8067,-3.8065,-3.8082,-3.8116,-3.8156,-3.8164,-3.8172,-3.8199,-3.8209,-3.8089,-3.8089,-3.8089,0,-3.7453,-3.7533,-3.7554,-3.7611,-3.7643,-3.7649,-3.7707,-3.774,-3.7805,-3.7826,-3.7813,-3.7922,-3.7955,-3.8037,-3.8057,-3.808,-3.8096,-3.8075,-3.8162,-3.817,-3.8177,-3.8203,-3.8213,-3.809,-3.809,-3.809,-3.809,0,-3.7556,-3.7611,-3.7651,-3.7715,-3.7752,-3.7809,-3.7838,-3.7873,-3.7882,-3.7905,-3.7975,-3.8015,-3.8072,-3.8093,-3.8101,-3.8176,-3.8167,-3.8158,-3.8132,-3.8188,-3.8213,-3.8223,-3.8093,-3.8092,-3.8092,-3.8091,0,0,-3.763,-3.7705,-3.772,-3.7748,-3.7806,-3.7849,-3.7906,-3.7962,-3.7991,-3.8036,-3.8083,-3.8157,-3.8149,-3.8181,-3.8193,-3.8229,-3.8289,-3.8216,-3.8217,-3.8226,-3.8372,-3.8377,-3.8388,-3.8289,-3.8291,-3.8293,-3.8367,0,-3.7703,-3.7805,-3.7826,-3.7913,-3.7964,-3.7971,-3.802,-3.806,-3.8083,-3.8129,-3.8154,-3.8205,-3.8192,-3.8211,-3.8247,-3.8274,-3.8318,-3.827,-3.8331,-3.8333,-3.8317,-3.8401,-3.8407,-3.8475,-3.8377,-3.8379,-3.838,0,-3.7801,-3.7849,-3.7942,-3.7993,-3.8015,-3.8059,-3.8112,-3.8156,-3.8201,-3.8216,-3.8252,-3.8261,-3.8319,-3.8292,-3.8371,-3.8337,-3.8364,-3.8381,-3.8384,-3.8389,-3.8358,-3.8406,-3.8497,-3.8507,-3.8396,-3.8395,-3.8393,0,-3.7844,-3.7932,-3.7998,-3.8023,-3.8084,-3.8115,-3.8142,-3.8186,-3.8218,-3.8264,-3.8285,-3.8337,-3.8365,-3.8405,-3.8427,-3.8406,-3.8504,-3.8479,-3.8515,-3.8515,-3.8534,-3.8532,-3.8628,-3.8555,-3.8554,-3.8554,-3.8554,0,-3.7922,-3.7978,-3.8018,-3.8059,-3.8121,-3.8145,-3.8206,-3.8232,-3.8271,-3.8316,-3.8326,-3.8367,-3.8395,-3.844,-3.8458,-3.8519,-3.8532,-3.8544,-3.8548,-3.8542,-3.854,-3.8558,-3.8553,-3.8557,-3.8556,-3.8556,-3.8555,0,-3.7979,-3.8009,-3.8081,-3.8134,-3.8149,-3.8192,-3.8236,-3.8276,-3.8299,-3.8356,-3.8371,-3.8407,-3.8461,-3.8488,-3.8554,-3.8566,-3.8635,-3.8637,-3.862,-3.8621,-3.8655,-3.865,-3.8764,-3.8779,-3.8698,-3.8698,-3.8699,0,-3.8026,-3.8069,-3.8127,-3.8158,-3.8186,-3.8236,-3.8269,-3.8295,-3.8329,-3.8384,-3.8416,-3.847,-3.8515,-3.86,-3.8632,-3.8683,-3.8684,-3.8721,-3.8692,-3.8685,-3.8683,-3.8679,-3.8682,-3.8725,-3.8726,-3.8727,-3.8727,0,-3.8105,-3.8118,-3.8166,-3.8219,-3.8259,-3.8302,-3.8344,-3.8369,-3.8401,-3.8439,-3.8494,-3.8529,-3.8598,-3.8651,-3.8704,-3.873,-3.8733,-3.8737,-3.8747,-3.8741,-3.8728,-3.8733,-3.8632,-3.8733,-3.8733,-3.8732,-3.8732,-3.8732,-3.8157,-3.8196,-3.8242,-3.8295,-3.833,-3.8369,-3.8408,-3.8437,-3.8485,-3.8543,-3.8555,-3.8613,-3.8657,-3.8729,-3.8757,-3.8802,-3.8794,-3.8809,-3.8813,-3.8816,-3.8817,-3.8723,-3.8812,-3.8812,-3.8812,-3.8812,-3.8811,0,-3.8235,-3.8266,-3.8315,-3.8374,-3.8415,-3.8417,-3.8464,-3.8498,-3.855,-3.8591,-3.8635,-3.8698,-3.875,-3.8786,-3.8838,-3.8868,-3.887,-3.888,-3.8877,-3.8883,-3.8822,-3.8807,-3.8877,-3.8877,-3.8877,-3.8877,-3.8877,-3.8877,-3.8281,-3.8345,-3.8363,-3.8445,-3.8474,-3.8533,-3.8559,-3.8595,-3.8628,-3.8698,-3.8742,-3.8765,-3.8804,-3.8859,-3.8907,-3.8916,-3.8934,-3.8943,-3.8952,-3.8894,-3.8887,-3.8881,-3.8866,-3.8948,-3.8948,-3.9009,-3.9009,-3.901]},{"header":{"parameterUnit":"m.s-1","parameterCategory":1,"la1":30.2991,"la2":30.254,"lo1":-89.0895,"lo2":-89.0444,"dy":0.0017,"dx":0.0017,"nx":28,"ny":28,"refTime":"2025-04-19T21:00:00:Z","depth":0,"parameterNumber":3,"parameterNumberName":"V-component_of_WINDS"},"data":[0,0,0,0,0,0,0,0,0,0,0,0,0,0,0,0,0,0,0,0,0,0,0,0,0,0,0,0,0,0,0,0,0,0,0,0,0,0,0,0,0,0,0,0,0,0,0,0,0,0,0,0,0,0,0,0,0,0,3.0666,3.0666,0,3.0703,3.0704,3.0704,3.0687,3.0686,3.0685,3.0684,3.072,3.0722,3.0724,0,0,0,0,0,0,0,0,0,0,0,0,0,3.0578,3.0579,3.0666,3.0666,3.0666,3.0703,3.0704,3.0704,3.0687,3.0686,3.0685,3.0684,3.072,3.0722,3.0724,0,0,0,0,0,0,0,0,0,0,0,0,0,3.0616,3.058,3.0665,3.0663,3.0663,3.0703,3.0704,3.0704,3.0687,3.0686,3.0685,3.0683,3.0719,3.0722,3.0724,3.0769,0,0,3.0733,3.0734,0,0,0,0,0,0,0,0,3.0613,3.0619,3.0663,3.0663,3.0663,3.0689,3.0686,3.0726,3.0688,3.0678,3.0684,3.0683,3.0711,3.0714,3.0724,3.077,3.0772,3.0733,3.0734,3.0736,3.0736,0,0,0,0,0,0,0,3.0611,3.0617,3.068,3.0663,3.0664,3.0659,3.0663,3.0693,3.0702,3.0679,3.0678,3.0682,3.0711,3.0722,3.0725,3.0772,3.0733,3.0735,3.0737,3.0738,3.0858,3.086,0,0,0,0,0,0,3.0609,3.0615,3.0679,3.0681,3.0634,3.0662,3.0666,3.0682,3.0701,3.0703,3.0684,3.0682,3.0718,3.0722,3.0726,3.078,3.0736,3.0738,3.074,3.0857,3.0859,3.086,0,0,0,0,0,0,3.0607,3.0614,3.0678,3.0648,3.0656,3.0665,3.0683,3.0684,3.0694,3.0705,3.0706,3.0693,3.0717,3.0722,3.0759,3.0781,3.0739,3.0742,3.0855,3.0857,3.086,3.0889,0,0,0,0,0,0,3.0604,3.0614,3.0631,3.0649,3.0657,3.071,3.0684,3.0685,3.0699,3.0697,3.0714,3.0716,3.0716,3.0755,3.0761,3.0784,3.0744,3.0853,3.0856,3.0859,3.0886,3.0892,3.0897,0,0,0,0,0,3.0601,3.0637,3.0632,3.064,3.0679,3.0712,3.0716,3.0717,3.0701,3.0719,3.0726,3.0715,3.0778,3.0759,3.0766,3.079,3.0852,3.0855,3.0859,3.0883,3.089,3.0897,0,0,0,0,0,0,3.0621,3.0639,3.0634,3.0676,3.0693,3.0709,3.073,3.0724,3.0744,3.0741,3.074,3.0744,3.0782,3.0789,3.0768,3.0835,3.0812,3.0817,3.0828,3.0835,3.0841,3.0838,3.0746,0,0,0,0,0,3.063,3.0655,3.067,3.0706,3.0715,3.0721,3.0735,3.0734,3.0751,3.0757,3.0767,3.0782,3.0806,3.0821,3.0843,3.0887,3.089,3.0907,3.0912,3.0917,3.0921,3.0946,3.0954,3.0872,3.0872,3.0872,0,0,3.0649,3.0663,3.0678,3.071,3.0723,3.0749,3.0727,3.0755,3.0774,3.0761,3.0797,3.0804,3.0822,3.0863,3.0881,3.087,3.0945,3.0921,3.0925,3.0927,3.0951,3.0958,3.0965,3.0874,3.0874,3.0874,0,0,3.0698,3.0711,3.0743,3.0756,3.0776,3.078,3.0788,3.0805,3.081,3.0846,3.0837,3.086,3.0899,3.0913,3.0925,3.098,3.0972,3.0987,3.1016,3.104,3.1047,3.1053,3.1073,3.108,3.0992,3.0992,3.0992,0,3.0719,3.0759,3.076,3.0789,3.0804,3.0794,3.0827,3.0839,3.0865,3.0875,3.0862,3.0913,3.0924,3.0969,3.0982,3.0992,3.1001,3.0985,3.1046,3.1052,3.1057,3.1077,3.1084,3.0994,3.0993,3.0993,3.0993,0,3.0785,3.0812,3.0836,3.0862,3.0879,3.091,3.0915,3.0932,3.093,3.0936,3.0973,3.0986,3.1011,3.1021,3.1019,3.1066,3.1058,3.1046,3.1024,3.1067,3.1085,3.1093,3.0996,3.0995,3.0995,3.0995,0,0,3.0846,3.0874,3.0882,3.0895,3.0916,3.0938,3.0968,3.0994,3.1009,3.1027,3.1052,3.1087,3.1077,3.109,3.1089,3.111,3.1154,3.1095,3.1096,3.1106,3.1208,3.1217,3.1226,3.1149,3.115,3.1152,3.1207,0,3.0897,3.0952,3.0954,3.1003,3.1029,3.1021,3.1048,3.1064,3.107,3.1093,3.1099,3.1125,3.1108,3.1116,3.1137,3.1145,3.1175,3.1141,3.1173,3.1174,3.1169,3.1236,3.1245,3.1297,3.1214,3.1215,3.1216,0,3.0964,3.0986,3.1038,3.1058,3.1069,3.1093,3.1117,3.1139,3.1157,3.116,3.1176,3.1172,3.1203,3.118,3.1223,3.12,3.1213,3.1219,3.1221,3.1224,3.1198,3.1241,3.1313,3.1321,3.1227,3.1226,3.1225,0,3.1004,3.1047,3.1084,3.1095,3.1118,3.1135,3.1146,3.1163,3.1178,3.1199,3.1209,3.1233,3.1246,3.1265,3.1267,3.125,3.1311,3.1287,3.1314,3.1314,3.1328,3.1327,3.1404,3.1335,3.1335,3.1335,3.1335,0,3.1061,3.1094,3.1103,3.1126,3.1163,3.1165,3.1201,3.1209,3.1225,3.1249,3.1243,3.1266,3.1268,3.1291,3.1294,3.1329,3.1335,3.1338,3.1339,3.1339,3.1339,3.1348,3.1345,3.1337,3.1337,3.1336,3.1336,0,3.1113,3.112,3.1161,3.118,3.1186,3.1212,3.1228,3.125,3.1256,3.1287,3.1294,3.1304,3.1331,3.1336,3.1368,3.1369,3.1412,3.1409,3.1407,3.1406,3.1433,3.1431,3.1519,3.1531,3.1455,3.1455,3.1456,0,3.1149,3.1175,3.1197,3.1214,3.1225,3.1252,3.1268,3.1271,3.1288,3.1312,3.1331,3.1358,3.138,3.1424,3.1434,3.1458,3.1455,3.1485,3.1459,3.1459,3.1457,3.1456,3.1458,3.149,3.149,3.1491,3.1492,0,3.1213,3.1216,3.124,3.1267,3.1287,3.1307,3.1327,3.134,3.1346,3.1365,3.1394,3.1411,3.1445,3.1472,3.1497,3.1506,3.15,3.15,3.1507,3.1508,3.1507,3.1509,3.1421,3.1498,3.1497,3.1497,3.1496,3.1496,3.1259,3.1282,3.1301,3.1329,3.1344,3.1363,3.1385,3.1395,3.1419,3.1447,3.1447,3.1479,3.1497,3.153,3.1542,3.1566,3.1557,3.1567,3.157,3.1573,3.1576,3.1503,3.157,3.157,3.157,3.157,3.157,0,3.1323,3.1336,3.1362,3.139,3.1412,3.1405,3.1426,3.1445,3.1473,3.1491,3.1513,3.1547,3.1573,3.1585,3.1611,3.1629,3.1627,3.1636,3.1635,3.1637,3.1583,3.1574,3.1637,3.1637,3.1637,3.1637,3.1637,3.1637,3.136,3.1398,3.1403,3.1449,3.1461,3.1493,3.1506,3.1523,3.1538,3.1576,3.1598,3.1606,3.1622,3.1649,3.1673,3.1676,3.1686,3.1697,3.1698,3.1648,3.1641,3.1634,3.1626,3.1699,3.1699,3.1751,3.1751,3.1752]}]]